,,,PA_Meas_PMT16A,,PR_Meas_QMR101_102,,RH_Meas_QMH101,,SR_Meas_QMS101,,TA_Meas_QMH101,,GenWind,,GenWind,
date,time,status,PA,status,PR,status,RH,status,SR,status,TA,status,DirAvg,status,SpdAvg,
2012-05-31, 00:00:04,VALID,999.59,VALID,0,VALID,94.6912,VALID,0,VALID,23.1549,VALID,72,VALID,0.398047,
2012-05-31, 00:01:04,VALID,999.566,VALID,0,VALID,94.6149,VALID,0,VALID,23.1354,VALID,347,VALID,0.717578,
2012-05-31, 00:02:04,VALID,999.533,VALID,0,VALID,94.5539,VALID,0,VALID,23.1549,VALID,319,VALID,0.847266,
2012-05-31, 00:03:04,VALID,999.532,VALID,0,VALID,94.4776,VALID,0,VALID,23.1336,VALID,319,VALID,0.682031,
2012-05-31, 00:04:04,VALID,999.547,VALID,0,VALID,94.4471,VALID,0,VALID,23.1549,VALID,319,VALID,0.482422,
2012-05-31, 00:05:04,VALID,999.496,VALID,0,VALID,94.4242,VALID,0,VALID,23.1354,VALID,319,VALID,0.566016,
2012-05-31, 00:06:04,VALID,999.478,VALID,0,VALID,94.4623,VALID,0,VALID,23.0946,VALID,319,VALID,0.470703,
2012-05-31, 00:07:04,VALID,999.452,VALID,0,VALID,94.4852,VALID,0,VALID,23.0964,VALID,319,VALID,0.253516,
2012-05-31, 00:08:04,VALID,999.427,VALID,0,VALID,94.5539,VALID,0,VALID,23.0946,VALID,319,VALID,0.337109,
2012-05-31, 00:09:04,VALID,999.416,VALID,0,VALID,94.6073,VALID,0,VALID,23.0751,VALID,319,VALID,0.372266,
2012-05-31, 00:10:04,VALID,999.405,VALID,0,VALID,94.6302,VALID,0,VALID,23.0769,VALID,6,VALID,0.747656,
2012-05-31, 00:11:04,VALID,999.38,VALID,0,VALID,94.6378,VALID,0,VALID,23.0573,VALID,6,VALID,0.686328,
2012-05-31, 00:12:04,VALID,999.371,VALID,0,VALID,94.6378,VALID,0,VALID,23.0361,VALID,6,VALID,0.727344,
2012-05-31, 00:13:04,VALID,999.397,VALID,0,VALID,94.6378,VALID,0,VALID,23.0378,VALID,5,VALID,0.697656,
2012-05-31, 00:14:04,VALID,999.353,VALID,0,VALID,94.6302,VALID,0.104696,VALID,23.0183,VALID,5,VALID,1.01367,
2012-05-31, 00:15:04,VALID,999.362,VALID,0,VALID,94.6378,VALID,0,VALID,23.0378,VALID,6,VALID,0.977344,
2012-05-31, 00:16:04,VALID,999.308,VALID,0,VALID,94.5386,VALID,0,VALID,23.0378,VALID,28,VALID,1.29062,
2012-05-31, 00:17:04,VALID,999.336,VALID,0,VALID,94.4165,VALID,0,VALID,23.0573,VALID,26,VALID,1.17461,
2012-05-31, 00:18:04,VALID,999.332,VALID,0,VALID,94.3326,VALID,0,VALID,23.0769,VALID,35,VALID,0.623438,
2012-05-31, 00:19:04,VALID,999.307,VALID,0,VALID,94.2792,VALID,0.104696,VALID,23.0573,VALID,50,VALID,0.912109,
2012-05-31, 00:20:04,VALID,999.254,VALID,0,VALID,94.2105,VALID,0,VALID,23.0573,VALID,45,VALID,1.10703,
2012-05-31, 00:21:04,VALID,999.236,VALID,0,VALID,94.2105,VALID,0,VALID,23.0964,VALID,32,VALID,1.2125,
2012-05-31, 00:22:04,VALID,999.238,VALID,0,VALID,94.0885,VALID,0,VALID,23.1141,VALID,29,VALID,0.861719,
2012-05-31, 00:23:04,VALID,999.239,VALID,0,VALID,94.0045,VALID,0,VALID,23.0769,VALID,6,VALID,0.759766,
2012-05-31, 00:24:04,VALID,999.229,VALID,0,VALID,93.9817,VALID,0,VALID,23.0751,VALID,344,VALID,0.818359,
2012-05-31, 00:25:04,VALID,999.261,VALID,0,VALID,94.1343,VALID,0,VALID,23.0946,VALID,341,VALID,0.297656,
2012-05-31, 00:26:04,VALID,999.281,VALID,0,VALID,94.1953,VALID,0,VALID,23.0946,VALID,341,VALID,0.238672,
2012-05-31, 00:27:04,VALID,999.26,VALID,0,VALID,94.1953,VALID,0,VALID,23.1354,VALID,341,VALID,0.238281,
2012-05-31, 00:28:04,VALID,999.3,VALID,0,VALID,94.2105,VALID,0,VALID,23.1354,VALID,341,VALID,0.615625,
2012-05-31, 00:29:04,VALID,999.304,VALID,0,VALID,94.2258,VALID,0,VALID,23.1354,VALID,341,VALID,0.282813,
2012-05-31, 00:30:04,VALID,999.308,VALID,0,VALID,94.2258,VALID,0,VALID,23.1549,VALID,341,VALID,0.561719,
2012-05-31, 00:31:04,VALID,999.321,VALID,0,VALID,94.2411,VALID,0,VALID,23.1141,VALID,341,VALID,1.0957,
2012-05-31, 00:32:04,VALID,999.334,VALID,0,VALID,94.2487,VALID,0,VALID,23.1354,VALID,341,VALID,1.02539,
2012-05-31, 00:33:04,VALID,999.341,VALID,0,VALID,94.1877,VALID,0.104696,VALID,23.1549,VALID,348,VALID,0.836719,
2012-05-31, 00:34:04,VALID,999.352,VALID,0,VALID,94.2182,VALID,0,VALID,23.1159,VALID,352,VALID,1.08086,
2012-05-31, 00:35:04,VALID,999.356,VALID,0,VALID,94.3326,VALID,0,VALID,23.0946,VALID,4,VALID,1.17578,
2012-05-31, 00:36:04,VALID,999.367,VALID,0,VALID,94.4318,VALID,0,VALID,23.1159,VALID,6,VALID,1.03047,
2012-05-31, 00:37:04,VALID,999.363,VALID,0,VALID,94.4394,VALID,0,VALID,23.1159,VALID,6,VALID,0.878906,
2012-05-31, 00:38:04,VALID,999.383,VALID,0,VALID,94.4165,VALID,0,VALID,23.0964,VALID,6,VALID,1.1418,
2012-05-31, 00:39:04,VALID,999.376,VALID,0,VALID,94.4242,VALID,0,VALID,23.0573,VALID,16,VALID,1.26133,
2012-05-31, 00:40:04,VALID,999.343,VALID,0,VALID,94.4165,VALID,0.104696,VALID,23.0378,VALID,16,VALID,1.13047,
2012-05-31, 00:41:04,VALID,999.33,VALID,0,VALID,94.4165,VALID,0,VALID,23.0378,VALID,16,VALID,0.508984,
2012-05-31, 00:42:04,VALID,999.357,VALID,0,VALID,94.4242,VALID,0.104696,VALID,23.0183,VALID,16,VALID,0.671094,
2012-05-31, 00:43:04,VALID,999.328,VALID,0,VALID,94.4776,VALID,0,VALID,22.9776,VALID,9,VALID,0.493359,
2012-05-31, 00:44:04,VALID,999.334,VALID,0,VALID,94.531,VALID,0,VALID,22.9971,VALID,4,VALID,0.278516,
2012-05-31, 00:45:04,VALID,999.289,VALID,0,VALID,94.5234,VALID,0.104696,VALID,23.0183,VALID,4,VALID,0.0808594,
2012-05-31, 00:46:04,VALID,999.318,VALID,0,VALID,94.5539,VALID,0,VALID,23.0166,VALID,4,VALID,0.0585938,
2012-05-31, 00:47:04,VALID,999.3,VALID,0,VALID,94.531,VALID,0.104696,VALID,22.9971,VALID,4,VALID,0.0234375,
2012-05-31, 00:48:04,VALID,999.296,VALID,0,VALID,94.5234,VALID,0,VALID,22.9988,VALID,4,VALID,0.381641,
2012-05-31, 00:49:04,VALID,999.296,VALID,0,VALID,94.5615,VALID,0,VALID,22.9776,VALID,33,VALID,0.759766,
2012-05-31, 00:50:04,VALID,999.286,VALID,0,VALID,94.6073,VALID,0,VALID,23.0183,VALID,63,VALID,0.926562,
2012-05-31, 00:51:04,VALID,999.294,VALID,0,VALID,94.5997,VALID,0,VALID,23.0166,VALID,71,VALID,1.0707,
2012-05-31, 00:52:04,VALID,999.28,VALID,0,VALID,94.5615,VALID,0,VALID,23.0361,VALID,81,VALID,1.12305,
2012-05-31, 00:53:04,VALID,999.264,VALID,0,VALID,94.5234,VALID,0,VALID,23.0361,VALID,82,VALID,1.13008,
2012-05-31, 00:54:04,VALID,999.297,VALID,0,VALID,94.5615,VALID,0,VALID,23.0769,VALID,82,VALID,1.01758,
2012-05-31, 00:55:04,VALID,999.274,VALID,0,VALID,94.5462,VALID,0,VALID,23.0361,VALID,82,VALID,0.994531,
2012-05-31, 00:56:04,VALID,999.316,VALID,0,VALID,94.5539,VALID,0,VALID,23.0769,VALID,83,VALID,1.14453,
2012-05-31, 00:57:04,VALID,999.276,VALID,0,VALID,94.6149,VALID,0.104696,VALID,23.0361,VALID,85,VALID,1.41367,
2012-05-31, 00:58:04,VALID,999.254,VALID,0,VALID,94.6607,VALID,0.104696,VALID,23.0573,VALID,89,VALID,1.26328,
2012-05-31, 00:59:04,VALID,999.242,VALID,0,VALID,94.7523,VALID,0,VALID,23.0361,VALID,90,VALID,1.20352,
2012-05-31, 01:00:04,VALID,999.187,VALID,0,VALID,94.8591,VALID,0,VALID,23.0769,VALID,90,VALID,1.1207,
2012-05-31, 01:01:04,VALID,999.16,VALID,0,VALID,94.943,VALID,0,VALID,23.0769,VALID,64,VALID,1.04727,
2012-05-31, 01:02:04,VALID,999.159,VALID,0,VALID,94.9735,VALID,0,VALID,23.0556,VALID,59,VALID,0.842188,
2012-05-31, 01:03:04,VALID,999.101,VALID,0,VALID,94.9811,VALID,0,VALID,23.0556,VALID,73,VALID,1.09805,
2012-05-31, 01:04:04,VALID,999.096,VALID,0,VALID,95.0498,VALID,0,VALID,23.0556,VALID,83,VALID,0.496484,
2012-05-31, 01:05:04,VALID,999.078,VALID,0,VALID,95.0956,VALID,0,VALID,23.0769,VALID,79,VALID,0.491016,
2012-05-31, 01:06:04,VALID,999.079,VALID,0,VALID,95.1414,VALID,0,VALID,23.0751,VALID,79,VALID,0.498828,
2012-05-31, 01:07:04,VALID,999.055,VALID,0,VALID,95.149,VALID,0,VALID,23.0751,VALID,79,VALID,0.324609,
2012-05-31, 01:08:04,VALID,999.053,VALID,0,VALID,95.1337,VALID,0.104696,VALID,23.0573,VALID,79,VALID,0.600781,
2012-05-31, 01:09:04,VALID,999.005,VALID,0,VALID,95.1261,VALID,0,VALID,23.0166,VALID,62,VALID,0.722266,
2012-05-31, 01:10:04,VALID,999.007,VALID,0,VALID,95.1108,VALID,0,VALID,23.0183,VALID,40,VALID,0.578906,
2012-05-31, 01:11:04,VALID,999.017,VALID,0,VALID,95.1032,VALID,0,VALID,22.9776,VALID,37,VALID,0.538281,
2012-05-31, 01:12:04,VALID,999.01,VALID,0,VALID,95.088,VALID,0,VALID,22.9793,VALID,33,VALID,0.606641,
2012-05-31, 01:13:04,VALID,999.008,VALID,0,VALID,95.0727,VALID,0,VALID,22.9581,VALID,26,VALID,0.369531,
2012-05-31, 01:14:04,VALID,999.003,VALID,0,VALID,95.0956,VALID,0,VALID,22.9581,VALID,26,VALID,0.346094,
2012-05-31, 01:15:04,VALID,998.992,VALID,0,VALID,95.088,VALID,0.104696,VALID,22.9581,VALID,26,VALID,0.182422,
2012-05-31, 01:16:04,VALID,998.958,VALID,0,VALID,95.0498,VALID,0,VALID,22.9403,VALID,26,VALID,0.311328,
2012-05-31, 01:17:04,VALID,998.945,VALID,0,VALID,95.0651,VALID,0,VALID,22.9598,VALID,26,VALID,0.210156,
2012-05-31, 01:18:04,VALID,998.925,VALID,0,VALID,95.088,VALID,0,VALID,22.9403,VALID,26,VALID,0.192188,
2012-05-31, 01:19:04,VALID,998.918,VALID,0,VALID,95.0345,VALID,0,VALID,22.9208,VALID,26,VALID,0.414063,
2012-05-31, 01:20:04,VALID,998.878,VALID,0,VALID,95.0574,VALID,0,VALID,22.8995,VALID,26,VALID,0.571484,
2012-05-31, 01:21:04,VALID,998.898,VALID,0,VALID,95.0574,VALID,0,VALID,22.8818,VALID,26,VALID,0.605078,
2012-05-31, 01:22:04,VALID,998.883,VALID,0,VALID,95.0651,VALID,0,VALID,22.9013,VALID,26,VALID,0.436328,
2012-05-31, 01:23:04,VALID,998.884,VALID,0,VALID,95.0651,VALID,0,VALID,22.8605,VALID,26,VALID,0.442578,
2012-05-31, 01:24:04,VALID,998.857,VALID,0,VALID,95.1032,VALID,0,VALID,22.88,VALID,26,VALID,0.560156,
2012-05-31, 01:25:04,VALID,998.838,VALID,0,VALID,95.149,VALID,0,VALID,22.9013,VALID,26,VALID,0.516016,
2012-05-31, 01:26:04,VALID,998.854,VALID,0,VALID,95.1566,VALID,0,VALID,22.8995,VALID,26,VALID,0.510938,
2012-05-31, 01:27:04,VALID,998.838,VALID,0.5,VALID,95.2177,VALID,0,VALID,22.9385,VALID,49,VALID,0.667578,
2012-05-31, 01:28:04,VALID,998.83,VALID,0,VALID,95.2787,VALID,0,VALID,23.0166,VALID,77,VALID,0.766406,
2012-05-31, 01:29:04,VALID,998.83,VALID,0,VALID,95.3474,VALID,0,VALID,23.0751,VALID,59,VALID,0.728516,
2012-05-31, 01:30:04,VALID,998.794,VALID,0,VALID,95.3703,VALID,0,VALID,23.0946,VALID,95,VALID,0.769922,
2012-05-31, 01:31:04,VALID,998.775,VALID,0,VALID,95.3626,VALID,0,VALID,23.1354,VALID,93,VALID,0.445313,
2012-05-31, 01:32:04,VALID,998.765,VALID,0,VALID,95.3321,VALID,0.104696,VALID,23.1141,VALID,93,VALID,0.401563,
2012-05-31, 01:33:04,VALID,998.771,VALID,0,VALID,95.294,VALID,0,VALID,23.1141,VALID,93,VALID,0.196484,
2012-05-31, 01:34:04,VALID,998.743,VALID,0,VALID,95.2787,VALID,0,VALID,23.1336,VALID,71,VALID,0.499219,
2012-05-31, 01:35:04,VALID,998.731,VALID,0,VALID,95.2405,VALID,0,VALID,23.1744,VALID,66,VALID,0.412109,
2012-05-31, 01:36:04,VALID,998.706,VALID,0,VALID,95.1795,VALID,0,VALID,23.1744,VALID,45,VALID,0.574219,
2012-05-31, 01:37:04,VALID,998.701,VALID,0,VALID,95.1108,VALID,0,VALID,23.1939,VALID,18,VALID,0.623828,
2012-05-31, 01:38:04,VALID,998.667,VALID,0,VALID,95.0498,VALID,0,VALID,23.1921,VALID,323,VALID,0.90625,
2012-05-31, 01:39:04,VALID,998.652,VALID,0,VALID,94.9659,VALID,0,VALID,23.2329,VALID,304,VALID,0.840625,
2012-05-31, 01:40:04,VALID,998.622,VALID,0,VALID,94.8896,VALID,0,VALID,23.2312,VALID,303,VALID,0.923828,
2012-05-31, 01:41:04,VALID,998.619,VALID,0,VALID,94.8667,VALID,0,VALID,23.2507,VALID,303,VALID,0.564844,
2012-05-31, 01:42:04,VALID,998.629,VALID,0,VALID,94.798,VALID,0,VALID,23.2915,VALID,303,VALID,0.264062,
2012-05-31, 01:43:04,VALID,998.618,VALID,0,VALID,94.7065,VALID,0,VALID,23.2702,VALID,303,VALID,0.0394531,
2012-05-31, 01:44:04,VALID,998.585,VALID,0,VALID,94.6226,VALID,0,VALID,23.2702,VALID,303,VALID,0.0910156,
2012-05-31, 01:45:04,VALID,998.556,VALID,0,VALID,94.6073,VALID,0,VALID,23.311,VALID,303,VALID,0.0585938,
2012-05-31, 01:46:04,VALID,998.582,VALID,0,VALID,94.5691,VALID,0,VALID,23.311,VALID,303,VALID,0,
2012-05-31, 01:47:04,VALID,998.568,VALID,0,VALID,94.4394,VALID,0,VALID,23.2702,VALID,303,VALID,0,
2012-05-31, 01:48:04,VALID,998.566,VALID,0,VALID,94.1953,VALID,0,VALID,23.2915,VALID,303,VALID,0,
2012-05-31, 01:49:04,VALID,998.543,VALID,0,VALID,93.974,VALID,0,VALID,23.2702,VALID,303,VALID,0,
2012-05-31, 01:50:04,VALID,998.549,VALID,0,VALID,93.7833,VALID,0,VALID,23.2507,VALID,303,VALID,0,
2012-05-31, 01:51:04,VALID,998.545,VALID,0,VALID,93.8901,VALID,0,VALID,23.2915,VALID,303,VALID,0,
2012-05-31, 01:52:04,VALID,998.537,VALID,0,VALID,93.9664,VALID,0,VALID,23.2915,VALID,303,VALID,0.415234,
2012-05-31, 01:53:04,VALID,998.511,VALID,0,VALID,93.7833,VALID,0,VALID,23.311,VALID,303,VALID,0.594531,
2012-05-31, 01:54:04,VALID,998.491,VALID,0,VALID,93.295,VALID,0,VALID,23.4085,VALID,304,VALID,0.755469,
2012-05-31, 01:55:04,VALID,998.481,VALID,0,VALID,92.3337,VALID,0,VALID,23.5256,VALID,304,VALID,0.575781,
2012-05-31, 01:56:04,VALID,998.44,VALID,0,VALID,91.5554,VALID,0,VALID,23.5628,VALID,84,VALID,0.665234,
2012-05-31, 01:57:04,VALID,998.42,VALID,0,VALID,90.9069,VALID,0,VALID,23.6817,VALID,84,VALID,0.466406,
2012-05-31, 01:58:04,VALID,998.423,VALID,0,VALID,90.3652,VALID,0,VALID,23.7189,VALID,84,VALID,0.0195313,
2012-05-31, 01:59:04,VALID,998.421,VALID,0,VALID,90.2126,VALID,0,VALID,23.6994,VALID,84,VALID,0.0964844,
2012-05-31, 02:00:04,VALID,998.399,VALID,0,VALID,90.5483,VALID,0,VALID,23.6799,VALID,84,VALID,0.148828,
2012-05-31, 02:01:04,VALID,998.357,VALID,0,VALID,90.7238,VALID,0,VALID,23.6817,VALID,84,VALID,0,
2012-05-31, 02:02:04,VALID,998.368,VALID,0,VALID,91.0595,VALID,0,VALID,23.6622,VALID,84,VALID,0.472656,
2012-05-31, 02:03:04,VALID,998.342,VALID,0,VALID,91.2731,VALID,0,VALID,23.6427,VALID,84,VALID,0.325,
2012-05-31, 02:04:04,VALID,998.364,VALID,0,VALID,91.3647,VALID,0,VALID,23.5823,VALID,84,VALID,0,
2012-05-31, 02:05:04,VALID,998.343,VALID,0,VALID,91.5707,VALID,0,VALID,23.5646,VALID,84,VALID,0,
2012-05-31, 02:06:04,VALID,998.378,VALID,0,VALID,91.8988,VALID,0,VALID,23.4848,VALID,84,VALID,0.177734,
2012-05-31, 02:07:04,VALID,998.374,VALID,0,VALID,92.0819,VALID,0,VALID,23.4848,VALID,84,VALID,0.034375,
2012-05-31, 02:08:04,VALID,998.383,VALID,0,VALID,92.2421,VALID,0,VALID,23.4866,VALID,84,VALID,0.453906,
2012-05-31, 02:09:04,VALID,998.383,VALID,0,VALID,92.3184,VALID,0,VALID,23.4653,VALID,84,VALID,0.169141,
2012-05-31, 02:10:04,VALID,998.37,VALID,0,VALID,92.4481,VALID,0,VALID,23.4671,VALID,84,VALID,0.476172,
2012-05-31, 02:11:04,VALID,998.354,VALID,0,VALID,92.6999,VALID,0,VALID,23.4067,VALID,84,VALID,0.451953,
2012-05-31, 02:12:04,VALID,998.327,VALID,0,VALID,92.7991,VALID,0,VALID,23.3482,VALID,34,VALID,0.7875,
2012-05-31, 02:13:04,VALID,998.297,VALID,0,VALID,92.9288,VALID,0,VALID,23.2897,VALID,34,VALID,0.8875,
2012-05-31, 02:14:04,VALID,998.275,VALID,0,VALID,92.8983,VALID,0,VALID,23.2507,VALID,34,VALID,1.05078,
2012-05-31, 02:15:04,VALID,998.262,VALID,0,VALID,92.883,VALID,0,VALID,23.1726,VALID,37,VALID,0.878125,
2012-05-31, 02:16:04,VALID,998.265,VALID,0,VALID,93.0356,VALID,0,VALID,23.1549,VALID,37,VALID,0.571484,
2012-05-31, 02:17:04,VALID,998.274,VALID,0,VALID,93.295,VALID,0,VALID,23.1141,VALID,37,VALID,0.870703,
2012-05-31, 02:18:04,VALID,998.266,VALID,0,VALID,93.4552,VALID,0,VALID,23.0964,VALID,37,VALID,0.914063,
2012-05-31, 02:19:04,VALID,998.271,VALID,0,VALID,93.4018,VALID,0,VALID,23.0786,VALID,37,VALID,0.687109,
2012-05-31, 02:20:04,VALID,998.272,VALID,0,VALID,93.3942,VALID,0,VALID,23.0183,VALID,37,VALID,0.545313,
2012-05-31, 02:21:04,VALID,998.286,VALID,0,VALID,93.4476,VALID,0,VALID,22.9988,VALID,37,VALID,0.58125,
2012-05-31, 02:22:04,VALID,998.266,VALID,0,VALID,93.5697,VALID,0,VALID,22.9403,VALID,37,VALID,0.493359,
2012-05-31, 02:23:04,VALID,998.283,VALID,0,VALID,93.6841,VALID,0,VALID,22.9013,VALID,37,VALID,0.380078,
2012-05-31, 02:24:04,VALID,998.279,VALID,0,VALID,93.7909,VALID,0,VALID,22.8623,VALID,37,VALID,0.542578,
2012-05-31, 02:25:04,VALID,998.231,VALID,0,VALID,94.0198,VALID,0,VALID,22.8445,VALID,34,VALID,1.34609,
2012-05-31, 02:26:04,VALID,998.194,VALID,0,VALID,94.2105,VALID,0,VALID,22.8055,VALID,45,VALID,1.2543,
2012-05-31, 02:27:04,VALID,998.137,VALID,0,VALID,94.3555,VALID,0,VALID,22.7664,VALID,30,VALID,1.36875,
2012-05-31, 02:28:04,VALID,998.136,VALID,0,VALID,94.4852,VALID,0,VALID,22.7079,VALID,30,VALID,1.40703,
2012-05-31, 02:29:04,VALID,998.098,VALID,0,VALID,94.6378,VALID,0,VALID,22.6477,VALID,32,VALID,0.811719,
2012-05-31, 02:30:04,VALID,998.046,VALID,0,VALID,94.7675,VALID,0,VALID,22.6494,VALID,32,VALID,0.857422,
2012-05-31, 02:31:04,VALID,998.012,VALID,0,VALID,94.8591,VALID,0,VALID,22.6494,VALID,32,VALID,0.6875,
2012-05-31, 02:32:04,VALID,997.993,VALID,0,VALID,94.9506,VALID,0,VALID,22.6104,VALID,33,VALID,0.165234,
2012-05-31, 02:33:04,VALID,997.961,VALID,0,VALID,94.9811,VALID,0,VALID,22.5892,VALID,33,VALID,0.285156,
2012-05-31, 02:34:04,VALID,997.946,VALID,0,VALID,95.0574,VALID,0,VALID,22.5679,VALID,33,VALID,0.442578,
2012-05-31, 02:35:04,VALID,997.951,VALID,0,VALID,95.1108,VALID,0,VALID,22.5289,VALID,22,VALID,0.577344,
2012-05-31, 02:36:04,VALID,997.918,VALID,0,VALID,95.1719,VALID,0.104696,VALID,22.5501,VALID,1,VALID,0.815625,
2012-05-31, 02:37:04,VALID,997.945,VALID,0,VALID,95.2482,VALID,0,VALID,22.5484,VALID,347,VALID,0.953906,
2012-05-31, 02:38:04,VALID,997.951,VALID,0,VALID,95.2787,VALID,0,VALID,22.5501,VALID,339,VALID,0.950391,
2012-05-31, 02:39:04,VALID,997.994,VALID,0,VALID,95.3245,VALID,0,VALID,22.5094,VALID,307,VALID,0.852734,
2012-05-31, 02:40:04,VALID,998.009,VALID,0,VALID,95.355,VALID,0,VALID,22.5306,VALID,288,VALID,0.947656,
2012-05-31, 02:41:04,VALID,998.002,VALID,0,VALID,95.3779,VALID,0,VALID,22.5501,VALID,289,VALID,0.692187,
2012-05-31, 02:42:04,VALID,998,VALID,0,VALID,95.4313,VALID,0,VALID,22.5289,VALID,289,VALID,0.372656,
2012-05-31, 02:43:04,VALID,998.004,VALID,0,VALID,95.4465,VALID,0,VALID,22.5501,VALID,289,VALID,0.338281,
2012-05-31, 02:44:04,VALID,997.995,VALID,0,VALID,95.4618,VALID,0,VALID,22.5696,VALID,289,VALID,0.31875,
2012-05-31, 02:45:04,VALID,997.971,VALID,0,VALID,95.5152,VALID,0,VALID,22.5892,VALID,289,VALID,0.391406,
2012-05-31, 02:46:04,VALID,997.984,VALID,0,VALID,95.5152,VALID,0,VALID,22.6087,VALID,289,VALID,0.458594,
2012-05-31, 02:47:04,VALID,997.953,VALID,0,VALID,95.5457,VALID,0,VALID,22.6087,VALID,289,VALID,0.5,
2012-05-31, 02:48:04,VALID,997.95,VALID,0,VALID,95.5762,VALID,0,VALID,22.6087,VALID,289,VALID,0.412891,
2012-05-31, 02:49:04,VALID,997.969,VALID,0,VALID,95.5839,VALID,0,VALID,22.6087,VALID,289,VALID,0.469531,
2012-05-31, 02:50:04,VALID,997.971,VALID,0,VALID,95.6144,VALID,0,VALID,22.6282,VALID,289,VALID,0.319922,
2012-05-31, 02:51:04,VALID,997.95,VALID,0,VALID,95.5991,VALID,0,VALID,22.6069,VALID,289,VALID,0.336328,
2012-05-31, 02:52:04,VALID,997.902,VALID,0,VALID,95.622,VALID,0,VALID,22.6087,VALID,289,VALID,0.485156,
2012-05-31, 02:53:04,VALID,997.932,VALID,0,VALID,95.6297,VALID,0,VALID,22.6069,VALID,289,VALID,0.628906,
2012-05-31, 02:54:04,VALID,997.956,VALID,0,VALID,95.6373,VALID,0,VALID,22.6087,VALID,291,VALID,0.817578,
2012-05-31, 02:55:04,VALID,997.909,VALID,0,VALID,95.6525,VALID,0,VALID,22.5289,VALID,14,VALID,1.15078,
2012-05-31, 02:56:04,VALID,997.898,VALID,0,VALID,95.6373,VALID,0,VALID,22.4916,VALID,16,VALID,1.38906,
2012-05-31, 02:57:04,VALID,997.912,VALID,0,VALID,95.6373,VALID,0,VALID,22.4526,VALID,26,VALID,1.39141,
2012-05-31, 02:58:04,VALID,997.923,VALID,0,VALID,95.622,VALID,0,VALID,22.3941,VALID,39,VALID,1.28555,
2012-05-31, 02:59:04,VALID,997.961,VALID,0,VALID,95.6373,VALID,0,VALID,22.3941,VALID,73,VALID,1.55586,
2012-05-31, 03:00:04,VALID,998.001,VALID,0,VALID,95.6068,VALID,0,VALID,22.3534,VALID,74,VALID,1.27891,
2012-05-31, 03:01:04,VALID,998.006,VALID,0,VALID,95.6144,VALID,0,VALID,22.3339,VALID,77,VALID,1.11172,
2012-05-31, 03:02:04,VALID,997.947,VALID,0,VALID,95.6144,VALID,0,VALID,22.3339,VALID,78,VALID,1.19727,
2012-05-31, 03:03:04,VALID,997.986,VALID,0,VALID,95.6297,VALID,0,VALID,22.3568,VALID,97,VALID,1.30508,
2012-05-31, 03:04:04,VALID,997.985,VALID,0,VALID,95.6297,VALID,0,VALID,22.3356,VALID,101,VALID,1.1668,
2012-05-31, 03:05:04,VALID,997.948,VALID,0,VALID,95.6297,VALID,0,VALID,22.3356,VALID,101,VALID,1.10703,
2012-05-31, 03:06:04,VALID,997.978,VALID,0,VALID,95.6525,VALID,0,VALID,22.3763,VALID,115,VALID,0.901172,
2012-05-31, 03:07:04,VALID,997.985,VALID,0,VALID,95.6449,VALID,0,VALID,22.3763,VALID,125,VALID,0.532812,
2012-05-31, 03:08:04,VALID,997.938,VALID,0,VALID,95.6297,VALID,0,VALID,22.3551,VALID,125,VALID,0.560156,
2012-05-31, 03:09:04,VALID,997.937,VALID,0,VALID,95.6449,VALID,0,VALID,22.3763,VALID,124,VALID,0.891016,
2012-05-31, 03:10:04,VALID,997.938,VALID,0,VALID,95.6678,VALID,0,VALID,22.3958,VALID,124,VALID,0.789453,
2012-05-31, 03:11:04,VALID,997.967,VALID,0,VALID,95.6525,VALID,0,VALID,22.4153,VALID,124,VALID,0.784375,
2012-05-31, 03:12:04,VALID,997.957,VALID,0,VALID,95.6678,VALID,0,VALID,22.3958,VALID,124,VALID,0.550781,
2012-05-31, 03:13:04,VALID,997.973,VALID,0,VALID,95.6678,VALID,0,VALID,22.3763,VALID,124,VALID,0.121875,
2012-05-31, 03:14:04,VALID,997.982,VALID,0,VALID,95.6449,VALID,0,VALID,22.3958,VALID,33,VALID,0.525,
2012-05-31, 03:15:04,VALID,998.017,VALID,0,VALID,95.6678,VALID,0,VALID,22.4153,VALID,343,VALID,0.603125,
2012-05-31, 03:16:04,VALID,998.053,VALID,0,VALID,95.6525,VALID,0,VALID,22.3941,VALID,343,VALID,0.329688,
2012-05-31, 03:17:04,VALID,998.063,VALID,0,VALID,95.6373,VALID,0,VALID,22.3941,VALID,343,VALID,0.571094,
2012-05-31, 03:18:04,VALID,998.057,VALID,0,VALID,95.6525,VALID,0,VALID,22.4153,VALID,336,VALID,0.748047,
2012-05-31, 03:19:04,VALID,998.056,VALID,0,VALID,95.6449,VALID,0,VALID,22.3924,VALID,321,VALID,0.818359,
2012-05-31, 03:20:04,VALID,998.038,VALID,0,VALID,95.6525,VALID,0,VALID,22.4136,VALID,321,VALID,0.473437,
2012-05-31, 03:21:04,VALID,998.082,VALID,0,VALID,95.6525,VALID,0,VALID,22.3941,VALID,321,VALID,0.238672,
2012-05-31, 03:22:04,VALID,998.053,VALID,0,VALID,95.6602,VALID,0,VALID,22.4136,VALID,321,VALID,0.0957031,
2012-05-31, 03:23:04,VALID,998.061,VALID,0,VALID,95.6602,VALID,0,VALID,22.3924,VALID,321,VALID,0,
2012-05-31, 03:24:04,VALID,998.021,VALID,0,VALID,95.6373,VALID,0,VALID,22.3551,VALID,321,VALID,0,
2012-05-31, 03:25:04,VALID,998.07,VALID,0,VALID,95.6754,VALID,0,VALID,22.3551,VALID,321,VALID,0,
2012-05-31, 03:26:04,VALID,998.073,VALID,0,VALID,95.6525,VALID,0,VALID,22.3551,VALID,321,VALID,0,
2012-05-31, 03:27:04,VALID,998.029,VALID,0,VALID,95.6678,VALID,0,VALID,22.3746,VALID,321,VALID,0.246094,
2012-05-31, 03:28:04,VALID,998.054,VALID,0,VALID,95.6678,VALID,0,VALID,22.3551,VALID,321,VALID,0.401953,
2012-05-31, 03:29:04,VALID,998.077,VALID,0,VALID,95.6754,VALID,0,VALID,22.3551,VALID,34,VALID,0.733984,
2012-05-31, 03:30:04,VALID,998.046,VALID,0,VALID,95.6831,VALID,0,VALID,22.3746,VALID,86,VALID,0.910156,
2012-05-31, 03:31:04,VALID,998.05,VALID,0,VALID,95.6983,VALID,0,VALID,22.3941,VALID,86,VALID,0.625,
2012-05-31, 03:32:04,VALID,998.055,VALID,0,VALID,95.6983,VALID,0,VALID,22.3746,VALID,86,VALID,0.179297,
2012-05-31, 03:33:04,VALID,998.03,VALID,0,VALID,95.6907,VALID,0,VALID,22.3551,VALID,86,VALID,0,
2012-05-31, 03:34:04,VALID,998.042,VALID,0,VALID,95.6678,VALID,0,VALID,22.3161,VALID,98,VALID,0.730469,
2012-05-31, 03:35:04,VALID,998.03,VALID,0,VALID,95.6449,VALID,0,VALID,22.3551,VALID,119,VALID,1.04961,
2012-05-31, 03:36:04,VALID,997.983,VALID,0,VALID,95.6449,VALID,0,VALID,22.3746,VALID,119,VALID,0.452344,
2012-05-31, 03:37:04,VALID,997.971,VALID,0,VALID,95.6525,VALID,0,VALID,22.3941,VALID,119,VALID,0.344531,
2012-05-31, 03:38:04,VALID,997.955,VALID,0,VALID,95.6449,VALID,0,VALID,22.3941,VALID,119,VALID,0.352734,
2012-05-31, 03:39:04,VALID,997.958,VALID,0,VALID,95.6373,VALID,0,VALID,22.3941,VALID,119,VALID,0.794922,
2012-05-31, 03:40:04,VALID,997.967,VALID,0,VALID,95.6449,VALID,0,VALID,22.3941,VALID,109,VALID,0.916797,
2012-05-31, 03:41:04,VALID,998.002,VALID,0,VALID,95.622,VALID,0,VALID,22.3729,VALID,108,VALID,1.06094,
2012-05-31, 03:42:04,VALID,997.935,VALID,0,VALID,95.6449,VALID,0,VALID,22.4136,VALID,105,VALID,0.784766,
2012-05-31, 03:43:04,VALID,997.936,VALID,0,VALID,95.6449,VALID,0,VALID,22.3941,VALID,101,VALID,0.509766,
2012-05-31, 03:44:04,VALID,997.934,VALID,0,VALID,95.6678,VALID,0,VALID,22.3551,VALID,59,VALID,0.789844,
2012-05-31, 03:45:04,VALID,997.957,VALID,0,VALID,95.6525,VALID,0,VALID,22.3161,VALID,49,VALID,0.883984,
2012-05-31, 03:46:04,VALID,997.957,VALID,0,VALID,95.622,VALID,0,VALID,22.2576,VALID,44,VALID,0.9125,